Wind_Speed
35 35 36 36 37 37 38 36 34 33 34 34 35 37 39 38 38 39 39 38 36 35 33 31 29 27 26 25 24 23 23 22 22 22 22 22 23 24
39 38 38 38 38 39 39 40 38 36 33 34 36 37 39 39 40 40 39 39 37 36 35 32 30 28 26 24 23 22 21 21 21 21 21 22 23 23
43 43 42 42 41 41 41 41 41 39 38 36 36 38 40 41 42 42 41 40 39 38 36 34 31 29 27 25 23 21 20 19 19 20 20 21 22 23
47 47 47 47 47 46 45 43 43 42 41 39 38 40 42 44 44 44 43 42 41 40 37 35 33 30 28 26 24 22 20 19 19 18 19 20 21 21
50 51 51 51 51 51 50 49 47 45 43 43 42 42 44 46 47 47 46 44 43 41 39 37 35 32 29 27 24 22 20 19 18 18 18 19 19 21
52 52 53 54 54 55 54 54 52 50 48 46 46 44 46 48 49 48 47 46 44 43 42 40 37 34 31 28 25 22 21 19 18 17 18 18 19 19
52 53 54 55 56 57 57 58 57 55 53 50 49 48 47 49 49 50 50 48 47 46 44 42 39 36 33 29 26 23 21 19 18 17 17 18 18 19
50 51 53 54 55 58 59 61 61 60 58 56 54 53 50 50 50 51 52 50 48 47 45 44 41 38 35 31 28 24 22 20 18 17 17 17 18 18
47 49 50 51 52 56 59 62 64 63 62 60 58 57 54 52 52 52 53 53 51 49 48 46 44 41 37 33 29 26 23 21 19 19 18 18 18 18
43 45 46 48 49 52 57 60 63 65 64 63 62 60 59 55 54 53 53 53 53 52 50 48 46 43 40 36 32 28 25 23 21 19 19 18 18 18
38 40 42 43 46 49 53 57 61 65 67 66 66 65 64 60 57 56 55 54 53 52 51 49 47 45 42 38 35 31 28 24 22 21 19 19 18 18
33 34 36 39 42 46 49 53 58 63 66 68 68 67 66 64 61 58 56 54 52 51 51 50 49 48 44 41 37 34 30 26 24 22 20 19 19 19
26 27 30 33 37 42 46 49 54 60 64 67 69 69 68 67 63 59 57 56 53 51 51 51 51 50 46 43 40 36 32 28 25 23 22 20 19 19
19 20 23 28 33 37 42 44 49 56 61 64 66 68 68 67 65 61 58 57 55 52 52 53 52 51 49 46 43 39 35 31 28 25 23 21 20 19
14 14 17 22 27 33 38 41 44 50 55 59 63 65 67 67 65 63 59 56 55 54 52 52 52 52 50 48 45 41 36 33 30 27 24 23 22 21
8 8 12 17 23 29 35 39 42 46 50 54 59 62 65 66 65 63 60 57 54 53 51 51 52 51 50 48 46 42 38 35 31 28 26 24 23 22
6 6 9 14 20 25 30 35 38 42 46 50 55 58 61 63 63 62 60 58 54 53 49 48 51 51 50 49 46 43 39 36 33 30 28 26 24 23
5 5 8 12 17 22 28 32 36 39 43 47 51 54 57 60 60 59 58 56 54 52 50 47 48 49 49 48 45 42 39 36 34 31 29 28 26 25
3 4 7 11 15 20 24 28 32 37 40 44 47 50 53 56 57 57 56 55 52 52 50 48 47 47 47 45 43 42 39 37 35 32 30 29 28 27
2 4 6 10 13 17 22 26 30 34 38 42 44 47 51 53 55 55 55 55 51 51 49 47 44 44 46 45 43 43 41 38 36 33 32 30 29 27
4 5 7 10 13 16 20 24 28 31 35 38 42 46 49 51 53 54 54 54 51 49 48 46 43 43 45 47 44 42 40 38 36 34 32 30 28 27
5 7 8 10 12 15 18 22 26 30 33 35 40 45 48 49 51 53 53 52 51 50 48 46 45 45 45 45 43 41 39 37 35 33 31 30 29 29
5 6 8 10 12 15 17 21 24 27 30 33 37 42 46 48 50 52 52 52 52 51 49 46 44 44 45 44 43 41 40 37 35 34 32 31 30 30
Wind_Direction
258 255 252 248 245 242 239 237 237 235 231 227 223 220 215 212 211 213 213 213 212 211 210 210 211 213 214 215 217 219 221 223 226 229 233 235 239 242
259 256 253 249 246 243 239 236 234 233 230 227 223 219 214 211 211 212 212 212 211 210 209 208 209 209 210 211 213 216 218 221 225 229 232 235 240 243
260 257 253 250 247 243 240 237 234 232 229 226 223 219 213 211 211 212 212 213 211 210 209 207 207 208 209 209 212 215 219 222 226 231 235 238 242 244
261 257 254 251 247 244 241 238 234 232 229 225 222 219 214 211 211 212 212 212 211 210 209 207 207 207 209 210 213 217 220 224 229 233 236 240 243 245
262 258 254 251 247 243 240 238 234 231 228 225 222 219 215 213 212 212 212 212 211 210 209 208 208 208 209 211 214 217 221 226 231 235 238 242 244 246
264 260 255 251 247 243 239 236 234 231 228 224 220 217 215 214 213 213 212 212 212 211 210 209 209 209 210 212 215 218 223 228 233 238 241 244 247 248
265 260 256 251 246 243 239 235 232 230 227 224 220 217 216 214 213 213 212 212 212 211 211 210 210 211 212 214 216 219 224 229 233 239 244 246 248 248
266 262 257 252 247 242 237 233 230 228 227 225 221 218 216 215 214 213 212 212 212 211 212 212 212 212 213 215 217 220 224 229 234 241 246 248 248 249
267 262 257 252 246 240 235 231 228 226 225 224 222 219 216 215 215 213 211 212 212 212 213 213 213 214 215 216 218 222 225 230 235 241 245 248 248 251
268 262 256 250 244 237 231 228 225 223 222 221 220 218 215 214 213 213 212 212 212 212 214 214 214 215 216 218 220 223 227 230 234 240 246 248 249 251
270 263 255 247 240 234 228 224 222 220 219 219 218 216 214 212 213 212 211 211 212 213 214 215 215 216 218 219 222 224 227 230 234 240 244 247 248 248
272 263 253 244 235 229 224 221 219 217 216 216 216 215 214 212 212 212 212 211 211 212 213 215 216 217 219 220 222 224 226 229 234 238 242 245 248 248
276 262 249 238 229 224 220 217 216 215 214 214 214 213 212 212 212 212 213 213 212 212 213 214 215 217 219 220 222 224 226 229 232 236 241 245 247 248
281 261 245 233 224 218 215 214 213 212 212 212 212 212 211 211 212 212 212 212 213 212 212 214 215 216 218 220 222 223 226 228 231 234 240 244 245 244
285 262 238 223 214 211 209 209 209 209 210 210 210 210 211 211 211 211 211 211 212 212 213 214 215 216 217 220 222 223 225 227 229 232 237 241 242 242
288 253 223 213 208 205 204 203 204 206 207 208 208 209 210 210 210 210 211 211 211 211 213 213 214 217 218 219 221 222 224 227 229 231 235 238 240 241
281 241 213 201 199 201 201 199 201 203 204 205 207 207 208 209 210 210 212 212 212 211 212 213 214 215 217 218 220 221 223 226 228 230 233 235 237 240
276 235 209 200 198 198 199 199 200 201 203 204 205 206 206 208 209 210 210 211 211 212 213 213 213 214 216 217 218 220 222 225 226 229 232 234 236 239
264 218 202 200 198 198 199 200 200 200 201 202 202 203 204 206 207 208 208 208 210 212 213 212 212 212 213 213 215 218 220 223 225 228 230 233 236 240
249 210 200 198 197 196 198 199 199 199 200 200 201 201 202 203 205 204 205 206 208 209 211 211 212 212 211 211 213 215 218 221 224 226 230 234 237 240
244 222 209 203 200 200 199 199 200 201 202 201 201 200 200 201 202 203 202 203 204 205 207 209 208 208 209 210 212 215 218 220 222 225 229 233 235 238
247 230 218 212 209 205 202 199 199 200 202 202 201 200 199 199 200 201 202 201 201 203 204 206 207 206 209 210 211 215 218 220 222 225 229 232 234 236
249 232 220 214 210 206 204 201 200 201 202 202 201 200 199 198 198 199 200 201 202 203 203 204 205 206 207 208 210 214 218 220 222 225 228 232 235 238
Height
5723 5725 5728 5730 5733 5737 5740 5744 5749 5752 5757 5761 5765 5770 5776 5781 5786 5792 5797 5803 5809 5814 5819 5823 5827 5831 5834 5837 5840 5843 5845 5848 5850 5852 5854 5857 5859 5861
5711 5713 5716 5719 5722 5725 5729 5734 5738 5743 5747 5752 5756 5761 5767 5773 5778 5784 5790 5796 5802 5807 5812 5817 5822 5826 5829 5833 5836 5838 5841 5843 5845 5848 5849 5851 5854 5855
5697 5700 5703 5706 5710 5714 5718 5722 5727 5732 5738 5743 5747 5752 5758 5764 5771 5777 5783 5789 5795 5801 5806 5811 5816 5821 5825 5828 5831 5834 5836 5839 5841 5843 5844 5846 5848 5850
5680 5683 5687 5690 5695 5700 5705 5710 5716 5721 5727 5733 5738 5743 5749 5755 5762 5769 5775 5781 5788 5794 5800 5805 5811 5815 5820 5823 5827 5829 5832 5834 5836 5838 5839 5841 5843 5844
5662 5666 5669 5673 5679 5684 5690 5696 5702 5709 5715 5722 5727 5733 5740 5746 5753 5760 5767 5774 5781 5787 5793 5799 5805 5810 5814 5818 5822 5825 5827 5830 5831 5833 5834 5836 5837 5839
5643 5646 5649 5654 5660 5666 5673 5681 5688 5695 5703 5710 5716 5722 5729 5736 5743 5751 5758 5766 5773 5780 5786 5793 5799 5804 5809 5813 5816 5819 5822 5825 5826 5828 5829 5831 5832 5833
5622 5624 5628 5633 5639 5646 5654 5663 5671 5680 5688 5696 5704 5711 5718 5725 5733 5741 5749 5757 5764 5772 5779 5786 5792 5797 5802 5807 5811 5814 5817 5820 5821 5823 5825 5826 5827 5828
5602 5603 5606 5611 5617 5625 5633 5643 5653 5663 5673 5682 5691 5699 5707 5715 5723 5731 5740 5748 5757 5765 5771 5778 5784 5791 5796 5801 5805 5809 5812 5814 5816 5818 5819 5821 5822 5822
5582 5583 5585 5590 5595 5603 5612 5622 5633 5644 5656 5667 5676 5687 5696 5704 5713 5721 5729 5738 5747 5755 5762 5769 5776 5783 5789 5794 5799 5803 5806 5808 5810 5812 5814 5815 5816 5817
5564 5564 5566 5570 5575 5583 5591 5602 5613 5626 5639 5651 5663 5672 5682 5691 5701 5710 5719 5727 5736 5745 5753 5761 5768 5775 5782 5787 5792 5796 5800 5802 5805 5807 5809 5810 5810 5811
5547 5547 5548 5552 5557 5564 5573 5585 5596 5608 5619 5632 5645 5656 5668 5678 5688 5697 5707 5716 5726 5735 5744 5753 5760 5767 5773 5779 5785 5790 5793 5796 5799 5801 5803 5804 5805 5806
5532 5531 5533 5536 5541 5547 5557 5568 5579 5591 5603 5616 5629 5641 5654 5665 5676 5687 5697 5707 5716 5726 5735 5743 5751 5758 5765 5772 5777 5782 5787 5790 5793 5795 5797 5799 5800 5801
5520 5519 5520 5523 5528 5535 5544 5555 5565 5576 5587 5600 5613 5627 5640 5652 5664 5676 5687 5697 5707 5717 5726 5733 5741 5749 5757 5763 5769 5775 5779 5783 5787 5789 5792 5793 5794 5796
5512 5510 5511 5513 5518 5525 5534 5544 5553 5564 5575 5587 5600 5614 5627 5640 5653 5664 5676 5686 5697 5706 5714 5723 5731 5739 5747 5754 5761 5767 5772 5776 5780 5783 5785 5787 5789 5790
5507 5505 5506 5508 5512 5519 5527 5535 5544 5554 5565 5577 5590 5603 5615 5628 5640 5652 5664 5674 5685 5695 5704 5713 5722 5730 5738 5746 5752 5759 5765 5769 5773 5776 5779 5781 5783 5784
5505 5503 5503 5505 5509 5514 5521 5529 5538 5548 5558 5568 5579 5591 5603 5616 5629 5642 5653 5664 5675 5685 5694 5703 5713 5721 5729 5737 5744 5751 5757 5762 5766 5769 5772 5775 5777 5778
5505 5503 5504 5505 5508 5513 5519 5526 5534 5543 5552 5561 5571 5582 5595 5607 5619 5632 5644 5655 5666 5677 5686 5695 5704 5712 5720 5728 5736 5743 5749 5754 5759 5762 5766 5768 5770 5772
5505 5504 5505 5506 5509 5512 5518 5524 5531 5539 5547 5556 5565 5575 5587 5598 5610 5622 5634 5646 5657 5667 5677 5686 5695 5704 5712 5721 5729 5735 5741 5747 5751 5755 5759 5762 5764 5766
5506 5506 5506 5508 5510 5513 5517 5523 5529 5535 5543 5551 5560 5570 5580 5591 5603 5614 5626 5638 5648 5659 5669 5678 5687 5696 5704 5713 5721 5727 5733 5739 5744 5748 5751 5754 5757 5759
5508 5507 5508 5509 5511 5514 5517 5522 5527 5533 5540 5547 5556 5565 5575 5585 5596 5607 5619 5630 5641 5651 5661 5670 5679 5688 5697 5705 5711 5718 5724 5730 5736 5740 5744 5747 5750 5752
5508 5508 5509 5510 5512 5514 5517 5521 5526 5531 5537 5544 5552 5560 5569 5579 5590 5600 5611 5622 5633 5643 5653 5663 5672 5680 5687 5695 5703 5710 5717 5723 5728 5732 5736 5740 5743 5745
5507 5508 5508 5510 5512 5514 5517 5520 5525 5529 5535 5541 5548 5555 5564 5573 5583 5594 5605 5616 5626 5636 5646 5654 5662 5671 5680 5688 5696 5703 5709 5715 5720 5725 5729 5733 5735 5737
5506 5506 5507 5509 5510 5513 5516 5519 5523 5528 5533 5538 5544 5551 5559 5568 5578 5588 5599 5609 5618 5628 5638 5647 5656 5664 5673 5680 5688 5695 5701 5707 5712 5717 5722 5725 5728 5730